Notices

What's New in latest Release from April 7th, 2021:

- Updated Glossary, including Speed of Maximum Gust, and Total Hourly Precipitation

- Updated national and regional climate services offices contacts and prices information

- Addition of station inventory lists for 1981-2010, 1971-2000, and 1961-1990 Normals.

If you haven't already, please take our survey and provide feedback about our website: https://eccc.sondage-survey.ca/f/LanguageSelection.aspx?s=442ca660-fcf1-47c0-95a9-59707d6fd709

Hourly Data Report for January 25, 2006

TORONTO CITY
ONTARIO

43°40'00.000" N
79°24'00.000" W
112.50 m
6158355
71508
XTO

Download Data

Hourly Data (January 2006)
Hourly Data Report for January 25, 2006
TIME
LST
Temp Definition
°C
Dew Point Definition
°C
Rel Hum Definition
%
Precip. Amount Definition
mm

Wind Dir Definition
10's deg

Wind Spd Definition
km/h
Visibility Definition
km
Stn Press Definition
kPa
Hmdx Definition


Wind Chill Definition


Weather Definition


00:00 2.8 0.5 85   LegendMM LegendMM   98.37     LegendNANA
01:00 2.9 0.4 84   LegendMM LegendMM   98.41     LegendNANA
02:00 2.4 1.1 91   LegendMM LegendMM   98.46     LegendNANA
03:00 2.2 -0.8 81   LegendMM LegendMM   98.55     LegendNANA
04:00 1.7 -1.5 79   LegendMM LegendMM   98.59     LegendNANA
05:00 1.6 -1.6 79   LegendMM LegendMM   98.63     LegendNANA
06:00 1.3 -1.6 81   LegendMM LegendMM   98.70     LegendNANA
07:00 1.2 -1.6 82   LegendMM LegendMM   98.77     LegendNANA
08:00 0.8 -0.3 92   LegendMM LegendMM   98.87     LegendNANA
09:00 1.4 -1.4 82   LegendMM LegendMM   99.04     LegendNANA
10:00 0.6 -2.5 80   LegendMM LegendMM   99.22     LegendNANA
11:00 -0.3 -4.9 71   LegendMM LegendMM   99.39     LegendNANA
12:00 -0.7 -5.7 69   LegendMM LegendMM   99.46     LegendNANA
13:00 -1.0 -6.0 69   LegendMM LegendMM   99.55     LegendNANA
14:00 -1.4 -6.5 68   LegendMM LegendMM   99.65     LegendNANA
15:00 -1.7 -6.3 71   LegendMM LegendMM   99.76     LegendNANA
16:00 -1.6 -6.2 71   LegendMM LegendMM   99.91     LegendNANA
17:00 -2.2 -6.2 74   LegendMM LegendMM   100.02     LegendNANA
18:00 -2.6 -6.6 74   LegendMM LegendMM   100.14     LegendNANA
19:00 -3.4 -6.3 80   LegendMM LegendMM   100.25     LegendNANA
20:00 -4.1 -6.8 81   LegendMM LegendMM   100.37     LegendNANA
21:00 -4.0 -7.1 79   LegendMM LegendMM   100.46     LegendNANA
22:00 -4.6 -8.9 72   LegendMM LegendMM   100.55     LegendNANA
23:00 -5.8 -9.9 73   LegendMM LegendMM   100.65     LegendNANA

Notes on Data Quality.

Legend

  • E = Estimated
  • M = Missing
  • NA = Not Available*
  • [empty] = Indicates an unobserved value
Date modified: